�������l�o���
Date,Time,MP-1(��Sv/h),MP-2(��Sv/h),MP-3(��Sv/h),MP-4(��Sv/h),MP-5(��Sv/h),MP-6(��Sv/h),MP-7(��Sv/h),MP-8(��Sv/h),����,����(m/s),���J
2023/01/08,00:00,0.571,0.827,0.518,1.059,0.730,0.325,0.589,0.560,�k�k��,5.0,��
2023/01/08,00:10,0.570,0.824,0.517,1.059,0.727,0.326,0.586,0.558,�k��,5.5,��
2023/01/08,00:20,0.572,0.825,0.517,1.059,0.729,0.325,0.588,0.557,�k��,6.9,��
2023/01/08,00:30,0.570,0.826,0.518,1.058,0.728,0.325,0.585,0.556,�k��,7.2,��
2023/01/08,00:40,0.570,0.825,0.516,1.059,0.728,0.326,0.587,0.558,�k��,7.7,��
2023/01/08,00:50,0.571,0.825,0.517,1.059,0.727,0.325,0.588,0.557,�k��,6.7,��
2023/01/08,01:00,0.570,0.826,0.516,1.057,0.727,0.325,0.589,0.556,�k��,6.7,��
2023/01/08,01:10,0.571,0.824,0.517,1.058,0.728,0.325,0.586,0.557,�k��,8.0,��
2023/01/08,01:20,0.571,0.824,0.519,1.059,0.728,0.325,0.588,0.558,�k��,6.6,��
2023/01/08,01:30,0.569,0.825,0.518,1.058,0.727,0.327,0.589,0.557,�k��,6.4,��
2023/01/08,01:40,0.570,0.826,0.518,1.058,0.728,0.324,0.588,0.559,�k��,6.3,��
2023/01/08,01:50,0.571,0.826,0.516,1.060,0.730,0.326,0.587,0.557,�k�k��,6.9,��
2023/01/08,02:00,0.570,0.825,0.517,1.059,0.728,0.324,0.587,0.558,�k�k��,6.1,��
2023/01/08,02:10,0.571,0.824,0.519,1.060,0.729,0.325,0.585,0.557,�k��,6.0,��
2023/01/08,02:20,0.571,0.825,0.518,1.057,0.729,0.324,0.588,0.557,�k��,6.0,��
2023/01/08,02:30,0.570,0.825,0.517,1.058,0.728,0.325,0.586,0.558,�k��,6.0,��
2023/01/08,02:40,0.571,0.823,0.517,1.058,0.729,0.324,0.587,0.559,�k��,5.8,��
2023/01/08,02:50,0.568,0.824,0.517,1.057,0.729,0.325,0.587,0.557,�k��,6.6,��
2023/01/08,03:00,0.571,0.824,0.517,1.057,0.729,0.326,0.586,0.558,�k��,5.2,��
2023/01/08,03:10,0.570,0.825,0.516,1.059,0.729,0.325,0.586,0.557,�k��,6.6,��
2023/01/08,03:20,0.570,0.826,0.518,1.057,0.727,0.324,0.588,0.558,�k��,6.6,��
2023/01/08,03:30,0.569,0.824,0.517,1.060,0.729,0.325,0.588,0.559,�k��,5.6,��
2023/01/08,03:40,0.568,0.826,0.516,1.056,0.729,0.326,0.587,0.557,�k�k��,5.5,��
2023/01/08,03:50,0.569,0.823,0.516,1.055,0.728,0.327,0.587,0.555,�k�k��,4.9,��
2023/01/08,04:00,0.570,0.823,0.515,1.058,0.730,0.325,0.588,0.558,�k�k��,5.8,��
2023/01/08,04:10,0.568,0.823,0.516,1.058,0.728,0.326,0.586,0.557,�k�k��,6.7,��
2023/01/08,04:20,0.568,0.825,0.517,1.059,0.730,0.325,0.586,0.557,�k�k��,7.2,��
2023/01/08,04:30,0.569,0.827,0.517,1.056,0.728,0.325,0.588,0.557,�k�k��,6.6,��
2023/01/08,04:40,0.570,0.824,0.517,1.057,0.727,0.325,0.586,0.557,�k�k��,7.7,��
2023/01/08,04:50,0.570,0.825,0.516,1.058,0.728,0.326,0.587,0.557,�k�k��,7.7,��
2023/01/08,05:00,0.569,0.826,0.517,1.057,0.726,0.324,0.586,0.558,�k��,6.6,��
2023/01/08,05:10,0.570,0.822,0.517,1.059,0.729,0.326,0.587,0.557,�k��,7.7,��
2023/01/08,05:20,0.569,0.823,0.517,1.056,0.726,0.325,0.586,0.557,�k��,6.9,��
2023/01/08,05:30,0.571,0.822,0.516,1.059,0.728,0.324,0.587,0.557,�k��,6.9,��
2023/01/08,05:40,0.569,0.826,0.516,1.057,0.726,0.325,0.587,0.558,�k��,7.4,��
2023/01/08,05:50,0.568,0.822,0.517,1.056,0.728,0.325,0.587,0.557,�k��,7.1,��
2023/01/08,06:00,0.568,0.822,0.516,1.056,0.728,0.326,0.586,0.558,�k��,6.6,��
2023/01/08,06:10,0.570,0.825,0.517,1.057,0.726,0.325,0.586,0.557,�k��,5.8,��
2023/01/08,06:20,0.567,0.822,0.515,1.056,0.727,0.325,0.586,0.557,���k��,5.8,��
2023/01/08,06:30,0.569,0.822,0.516,1.058,0.725,0.324,0.586,0.557,���k��,7.2,��
2023/01/08,06:40,0.568,0.823,0.516,1.056,0.726,0.323,0.586,0.558,�k�k��,4.4,��
2023/01/08,06:50,0.569,0.822,0.515,1.056,0.726,0.325,0.587,0.556,�k��,5.3,��
2023/01/08,07:00,0.568,0.824,0.515,1.057,0.727,0.323,0.588,0.558,�k��,5.6,��
2023/01/08,07:10,0.569,0.823,0.517,1.058,0.728,0.324,0.585,0.556,�k��,4.6,��
2023/01/08,07:20,0.569,0.821,0.516,1.058,0.727,0.325,0.587,0.558,�k��,5.0,��
2023/01/08,07:30,0.569,0.824,0.516,1.058,0.728,0.325,0.586,0.558,�k��,4.4,��
2023/01/08,07:40,0.569,0.825,0.517,1.057,0.727,0.325,0.587,0.557,�k��,4.9,��
2023/01/08,07:50,0.570,0.825,0.516,1.058,0.729,0.324,0.587,0.557,�k��,4.9,��
2023/01/08,08:00,0.569,0.825,0.518,1.058,0.729,0.324,0.586,0.556,�k��,4.4,��
2023/01/08,08:10,0.570,0.825,0.517,1.057,0.729,0.326,0.585,0.557,�k��,3.6,��
2023/01/08,08:20,0.570,0.825,0.516,1.058,0.726,0.325,0.586,0.556,�k�k��,3.2,��
2023/01/08,08:30,0.569,0.824,0.517,1.059,0.727,0.325,0.587,0.559,�k�k��,2.3,��
2023/01/08,08:40,0.570,0.823,0.517,1.058,0.728,0.324,0.587,0.557,�k��,2.5,��
2023/01/08,08:50,0.571,0.825,0.516,1.058,0.728,0.325,0.586,0.557,���k��,4.5,��
2023/01/08,09:00,0.569,0.824,0.517,1.058,0.729,0.324,0.587,0.557,���k��,4.4,��
2023/01/08,09:10,0.570,0.824,0.517,1.057,0.729,0.324,0.586,0.558,���k��,4.9,��
2023/01/08,09:20,0.570,0.824,0.517,1.059,0.728,0.323,0.588,0.557,���k��,4.4,��
2023/01/08,09:30,0.570,0.823,0.518,1.058,0.727,0.324,0.587,0.557,���k��,3.8,��
2023/01/08,09:40,0.571,0.825,0.518,1.057,0.728,0.325,0.587,0.557,���k��,3.3,��
2023/01/08,09:50,0.571,0.825,0.515,1.059,0.728,0.324,0.588,0.557,���k��,3.4,��
2023/01/08,10:00,0.570,0.826,0.517,1.057,0.726,0.325,0.587,0.557,���k��,4.4,��
2023/01/08,10:10,0.572,0.826,0.517,1.058,0.727,0.325,0.586,0.556,���k��,4.4,��
2023/01/08,10:20,0.570,0.825,0.517,1.060,0.729,0.324,0.586,0.558,���k��,2.2,��
2023/01/08,10:30,0.571,0.826,0.514,1.059,0.727,0.324,0.587,0.558,���k��,3.5,��
2023/01/08,10:40,0.569,0.826,0.518,1.059,0.729,0.325,0.586,0.559,���k��,3.9,��
2023/01/08,10:50,0.571,0.824,0.518,1.057,0.728,0.325,0.586,0.559,���k��,3.9,��
2023/01/08,11:00,0.569,0.824,0.518,1.060,0.729,0.326,0.585,0.558,���쐼,2.8,��
2023/01/08,11:10,0.571,0.824,0.516,1.057,0.728,0.326,0.587,0.557,���k��,2.6,��
2023/01/08,11:20,0.571,0.826,0.517,1.059,0.730,0.325,0.587,0.559,�k�k��,2.8,��
2023/01/08,11:30,0.572,0.825,0.517,1.058,0.731,0.326,0.587,0.558,�k��,2.6,��
2023/01/08,11:40,0.573,0.824,0.520,1.059,0.730,0.326,0.587,0.559,�k�k��,3.0,��
2023/01/08,11:50,0.571,0.823,0.518,1.059,0.729,0.325,0.587,0.557,�k�k��,2.3,��
2023/01/08,12:00,0.571,0.824,0.517,1.059,0.730,0.326,0.587,0.557,�k,1.6,��
2023/01/08,12:10,0.573,0.825,0.518,1.058,0.731,0.326,0.586,0.558,�k�k��,2.3,��
2023/01/08,12:20,0.570,0.823,0.520,1.059,0.730,0.326,0.589,0.558,�k�k��,2.9,��
2023/01/08,12:30,0.571,0.823,0.518,1.059,0.731,0.325,0.588,0.560,�k�k��,2.3,��
2023/01/08,12:40,0.572,0.824,0.516,1.056,0.732,0.324,0.587,0.559,�k�k��,3.3,��
2023/01/08,12:50,0.572,0.825,0.518,1.058,0.731,0.325,0.587,0.558,�k�k��,2.6,�L
2023/01/08,13:00,0.570,0.823,0.518,1.059,0.731,0.326,0.586,0.556,�k�k��,2.5,�L
2023/01/08,13:10,0.572,0.823,0.519,1.058,0.730,0.326,0.587,0.557,�k��,5.0,�L
2023/01/08,13:20,0.571,0.823,0.519,1.057,0.731,0.326,0.586,0.557,�k��,6.0,�L
2023/01/08,13:30,0.573,0.824,0.519,1.058,0.730,0.326,0.587,0.556,�k��,6.0,�L
2023/01/08,13:40,0.574,0.826,0.519,1.057,0.733,0.329,0.588,0.558,�k��,4.4,�L
2023/01/08,13:50,0.573,0.826,0.520,1.059,0.734,0.330,0.586,0.559,�k��,4.6,�L
2023/01/08,14:00,0.576,0.828,0.520,1.061,0.732,0.329,0.589,0.559,�k��,4.1,�L
2023/01/08,14:10,0.574,0.830,0.520,1.061,0.732,0.328,0.589,0.559,�k��,4.1,��
2023/01/08,14:20,0.575,0.829,0.519,1.061,0.732,0.328,0.589,0.558,���k��,5.3,��
2023/01/08,14:30,0.575,0.828,0.519,1.061,0.732,0.328,0.588,0.561,�k��,5.6,��
2023/01/08,14:40,0.573,0.829,0.519,1.061,0.732,0.327,0.589,0.560,���k��,5.8,�L
2023/01/08,14:50,0.573,0.829,0.517,1.062,0.730,0.325,0.589,0.559,�k��,5.2,�L
2023/01/08,15:00,0.573,0.829,0.518,1.060,0.731,0.326,0.587,0.558,�k��,5.5,�L
2023/01/08,15:10,0.573,0.829,0.521,1.060,0.731,0.325,0.586,0.558,�k��,5.8,��
2023/01/08,15:20,0.571,0.826,0.519,1.059,0.732,0.325,0.588,0.558,�k��,6.3,��
2023/01/08,15:30,0.572,0.827,0.519,1.059,0.732,0.325,0.587,0.559,�k��,5.2,�L
2023/01/08,15:40,0.572,0.828,0.519,1.057,0.729,0.326,0.587,0.559,���k��,4.9,�L
2023/01/08,15:50,0.573,0.826,0.519,1.058,0.730,0.325,0.587,0.559,�k��,6.0,��
2023/01/08,16:00,0.571,0.824,0.518,1.058,0.731,0.326,0.588,0.558,���k��,5.5,�L
2023/01/08,16:10,0.572,0.825,0.519,1.059,0.732,0.325,0.588,0.558,�k��,5.3,�L
2023/01/08,16:20,0.572,0.828,0.518,1.058,0.730,0.326,0.589,0.558,�k��,5.3,�L
2023/01/08,16:30,0.572,0.824,0.518,1.060,0.732,0.325,0.589,0.557,���k��,2.6,��
2023/01/08,16:40,0.571,0.827,0.517,1.058,0.729,0.325,0.589,0.558,�k��,5.3,��
2023/01/08,16:50,0.572,0.828,0.517,1.056,0.730,0.324,0.589,0.558,�k��,6.3,��
2023/01/08,17:00,0.571,0.827,0.517,1.058,0.730,0.324,0.588,0.558,���k��,6.0,��
2023/01/08,17:10,0.571,0.828,0.519,1.056,0.729,0.325,0.589,0.558,���k��,5.8,��
2023/01/08,17:20,0.570,0.825,0.518,1.058,0.730,0.324,0.589,0.557,�k��,6.0,��
2023/01/08,17:30,0.570,0.827,0.517,1.059,0.730,0.324,0.588,0.559,�k��,6.9,��
2023/01/08,17:40,0.570,0.826,0.516,1.059,0.731,0.326,0.588,0.558,�k��,7.1,��
2023/01/08,17:50,0.570,0.825,0.517,1.058,0.730,0.325,0.588,0.557,�k��,7.1,�L
2023/01/08,18:00,0.571,0.826,0.517,1.060,0.731,0.325,0.588,0.559,�k��,7.1,��
2023/01/08,18:10,0.571,0.827,0.517,1.059,0.729,0.324,0.587,0.558,�k��,7.4,��
2023/01/08,18:20,0.569,0.828,0.516,1.061,0.730,0.324,0.588,0.558,�k��,8.8,��
2023/01/08,18:30,0.572,0.827,0.518,1.058,0.731,0.325,0.590,0.558,�k��,6.6,��
2023/01/08,18:40,0.572,0.826,0.518,1.059,0.731,0.325,0.588,0.559,�k��,7.4,��
2023/01/08,18:50,0.572,0.825,0.517,1.059,0.729,0.326,0.589,0.559,�k��,6.6,��
2023/01/08,19:00,0.571,0.824,0.517,1.058,0.732,0.324,0.587,0.558,�k��,6.3,��
2023/01/08,19:10,0.571,0.824,0.519,1.058,0.727,0.324,0.588,0.558,�k��,6.9,��
2023/01/08,19:20,0.571,0.827,0.518,1.060,0.729,0.325,0.589,0.558,�k��,7.5,��
2023/01/08,19:30,0.571,0.828,0.518,1.056,0.730,0.324,0.587,0.558,�k��,7.7,��
2023/01/08,19:40,0.571,0.826,0.518,1.060,0.731,0.325,0.588,0.560,�k��,4.9,��
2023/01/08,19:50,0.569,0.826,0.516,1.059,0.729,0.324,0.587,0.557,���k��,4.9,��
2023/01/08,20:00,0.571,0.825,0.516,1.059,0.729,0.323,0.587,0.557,���k��,4.6,��
2023/01/08,20:10,0.570,0.824,0.517,1.060,0.730,0.325,0.588,0.559,�k��,4.4,��
2023/01/08,20:20,0.570,0.825,0.517,1.058,0.730,0.325,0.586,0.558,���k��,4.6,��
2023/01/08,20:30,0.569,0.826,0.518,1.057,0.729,0.325,0.587,0.559,���k��,2.8,��
2023/01/08,20:40,0.569,0.828,0.518,1.060,0.728,0.325,0.589,0.558,���k��,2.2,��
2023/01/08,20:50,0.572,0.826,0.517,1.059,0.731,0.324,0.587,0.558,���k��,3.3,��
2023/01/08,21:00,0.570,0.827,0.518,1.058,0.730,0.325,0.587,0.557,���k��,4.6,��
2023/01/08,21:10,0.570,0.826,0.516,1.060,0.729,0.325,0.587,0.558,���k��,4.2,��
2023/01/08,21:20,0.570,0.826,0.518,1.058,0.728,0.325,0.587,0.559,��,4.1,��
2023/01/08,21:30,0.570,0.826,0.517,1.059,0.731,0.325,0.587,0.558,��,4.7,��
2023/01/08,21:40,0.570,0.824,0.517,1.058,0.730,0.324,0.588,0.556,���쐼,3.5,��
2023/01/08,21:50,0.572,0.825,0.518,1.058,0.730,0.324,0.589,0.558,���쐼,3.5,��
2023/01/08,22:00,0.569,0.824,0.517,1.058,0.729,0.325,0.586,0.559,��,2.9,��
2023/01/08,22:10,0.571,0.825,0.516,1.056,0.730,0.324,0.587,0.558,��,2.8,��
2023/01/08,22:20,0.570,0.826,0.516,1.058,0.729,0.325,0.585,0.558,��,2.9,��
2023/01/08,22:30,0.570,0.826,0.517,1.057,0.730,0.323,0.584,0.557,��,4.9,��
2023/01/08,22:40,0.569,0.825,0.518,1.059,0.729,0.326,0.588,0.557,��,5.2,��
2023/01/08,22:50,0.569,0.826,0.518,1.057,0.731,0.324,0.587,0.557,��,5.8,��
2023/01/08,23:00,0.571,0.827,0.518,1.058,0.732,0.325,0.586,0.556,���k��,6.3,��
2023/01/08,23:10,0.570,0.823,0.517,1.058,0.730,0.325,0.587,0.557,��,6.3,��
2023/01/08,23:20,0.571,0.825,0.517,1.058,0.730,0.325,0.587,0.557,��,6.4,��
2023/01/08,23:30,0.570,0.827,0.518,1.057,0.730,0.324,0.587,0.559,��,6.6,��
2023/01/08,23:40,0.571,0.825,0.518,1.058,0.730,0.325,0.588,0.558,��,6.0,��
2023/01/08,23:50,0.570,0.828,0.518,1.058,0.730,0.325,0.589,0.557,��,6.6,��
